Regional Weather Roundup
Issued by NWS Cleveland, OH

Home | Current Version | Previous Version | Text Only | Print | Product List | Glossary Off
Versions: 1 2 3 4 5 6 7 8 9 10 11 12 13 14 15 16 17 18 19 20 21 22 23 24 25 26 27 28 29 30 31 32 33 34 35 36 37 38 39 40 41 42 43 44 45 46 47 48 49 50

000
ASUS41 KCLE 240800
RWRCLE
OHIO REGIONAL WEATHER ROUNDUP
NATIONAL WEATHER SERVICE WILMINGTON, OH
400 AM EDT THU AUG 24 2017

NOTE: "FAIR" INDICATES FEW OR NO CLOUDS BELOW 12,000 FEET WITH NO
SIGNIFICANT WEATHER AND/OR OBSTRUCTIONS TO VISIBILITY.

OHZ001>008-015>018-024>027-034-035-043-044-240900-
   NORTHWEST OHIO

CITY           SKY/WX    TMP DP  RH WIND       PRES   REMARKS
DEFIANCE       FAIR      54  50  86 NW7       30.04R
FINDLAY        FAIR      54  49  83 W3        30.01R
TOLEDO EXPRESS FAIR      56  53  90 NW6       30.02R
TOLEDO EXEC    FAIR      60  51  72 N6        30.02R
LIMA           FAIR      54  52  93 NW6       30.03R
$$

OHZ009>014-019>023-028>033-038-089-240900-
   NORTHEAST OHIO

CITY           SKY/WX    TMP DP  RH WIND       PRES   REMARKS
CLE-HOPKINS    CLOUDY    64  58  80 CALM      30.00R
CLE-LAKEFRONT  LGT RAIN  67  56  67 E7        29.97R
CUY CO. ARPT   NOT AVBL
LORAIN-ELYRIA  FAIR      59  54  83 CALM      29.99R
ASHTABULA      FAIR      53  53 100 CALM      30.01R
AKRON-CANTON   FAIR      59  53  80 CALM      29.99S
WOOSTER        NOT AVBL
MANSFIELD      FAIR      57  52  83 W6        30.01R
YOUNGSTOWN     MOCLDY    58  55  90 CALM      30.00R
$$

OHZ042-051>053-060>062-070>072-077>081-240900-
  SOUTHWEST OHIO

CITY           SKY/WX    TMP DP  RH WIND       PRES   REMARKS
CINC-COVINGTON FAIR      62  55  77 N5        30.03R
CINC-LUNKEN    FAIR      56  56 100 CALM      30.04R
HAMILTON       FAIR      54  53  97 CALM      30.04S
DAYTON         NOT AVBL
WRIGHT-PAT AFB FAIR      54  53  97 CALM      30.03S
DAYTON GENERAL FAIR      56  51  84 NE6       30.03R
WILMINGTON     FAIR      54  54 100 CALM      30.03R
$$

OHZ036-037-039>041-045>050-054>059-063>069-073>076-082>088-240900-
  CENTRAL AND SOUTHEAST OHIO

CITY           SKY/WX    TMP DP  RH WIND       PRES   REMARKS
COLUMBUS       FAIR      59  56  89 CALM      30.01S
OSU AIRPORT    FAIR      55  53  93 W6        30.01S
BOLTON FIELD   NOT AVBL
RICKENBACK AFB NOT AVBL
NEWARK         FAIR      57  55  93 CALM      30.01R
MARION         FAIR      56  50  80 W6        30.02R
LANCASTER      FAIR      54  53  97 CALM      30.01S
ZANESVILLE     FAIR      59  56  89 CALM      30.00S
NEW PHILLY     CLOUDY    58  57  97 CALM      30.00S
$$



USA.gov is the U.S. government's official web portal to all federal, state and local government web resources and services.